FJA280 NGFU-NFNA

Flight info

Callsign FJA280
Flight time 2h 17m
Altitude 19000
Route LATOL G593 ANRIK
Aircraft AT76/M-SDFGIRY/S

Departure

Time 2026-04-25 01:47
Airport Funafuti International Airport (NGFU)

Arrival

Time 2026-04-25 04:04
Airport Nausori International Airport (NFNA)
Time Latitude Longitude Altitude Speed Heading
2026-04-25 01:24 -8.52479 179.19537 5 ft 0 kts 146°
2026-04-25 01:39 -8.52487 179.19543 5 ft 4 kts 146°
2026-04-25 01:40 -8.52520 179.19559 5 ft 7 kts 175°
2026-04-25 01:40 -8.52570 179.19521 4 ft 11 kts 224°
2026-04-25 01:40 -8.52633 179.19460 3 ft 13 kts 224°
2026-04-25 01:40 -8.52701 179.19396 5 ft 14 kts 222°
2026-04-25 01:41 -8.52771 179.19332 5 ft 13 kts 221°
2026-04-25 01:41 -8.52840 179.19267 5 ft 13 kts 225°
2026-04-25 01:41 -8.52880 179.19230 6 ft 1 kts 214°
2026-04-25 01:41 -8.52892 179.19226 6 ft 3 kts 183°
2026-04-25 01:42 -8.52903 179.19227 6 ft 0 kts 191°
2026-04-25 01:42 -8.52905 179.19225 6 ft 1 kts 214°
2026-04-25 01:42 -8.52902 179.19220 6 ft 1 kts 294°
2026-04-25 01:42 -8.52894 179.19221 6 ft 3 kts
2026-04-25 01:43 -8.52883 179.19228 6 ft 0 kts 42°
2026-04-25 01:43 -8.52886 179.19226 6 ft 2 kts 41°
2026-04-25 01:43 -8.52911 179.19203 7 ft 5 kts 41°
2026-04-25 01:43 -8.52914 179.19201 7 ft 0 kts 41°
2026-04-25 01:46 -8.52876 179.19235 6 ft 31 kts 43°
2026-04-25 01:46 -8.52558 179.19532 4 ft 92 kts 43°
2026-04-25 01:46 -8.51979 179.20076 117 ft 126 kts 45°
2026-04-25 01:46 -8.51377 179.20739 584 ft 133 kts 58°
2026-04-25 01:47 -8.51139 179.21652 1077 ft 139 kts 91°
2026-04-25 01:47 -8.51507 179.22600 1179 ft 163 kts 137°
2026-04-25 01:47 -8.52623 179.22953 1371 ft 179 kts 180°
2026-04-25 01:47 -8.53876 179.22898 1735 ft 181 kts 180°
2026-04-25 01:48 -8.55137 179.22841 2100 ft 182 kts 181°
2026-04-25 01:48 -8.56400 179.22759 2453 ft 185 kts 182°
2026-04-25 01:48 -8.57704 179.22666 2796 ft 187 kts 182°
2026-04-25 01:48 -8.58993 179.22574 3131 ft 189 kts 181°
2026-04-25 01:49 -8.60308 179.22486 3487 ft 190 kts 181°
2026-04-25 01:49 -8.61629 179.22398 3839 ft 191 kts 182°
2026-04-25 01:49 -8.62960 179.22308 4175 ft 192 kts 181°
2026-04-25 01:49 -8.64294 179.22220 4511 ft 193 kts 181°
2026-04-25 01:50 -8.65637 179.22130 4848 ft 194 kts 181°
2026-04-25 01:50 -8.66989 179.22039 5191 ft 195 kts 181°
2026-04-25 01:50 -8.68344 179.21949 5510 ft 196 kts 181°
2026-04-25 01:50 -8.69707 179.21855 5828 ft 197 kts 181°
2026-04-25 01:51 -8.71082 179.21767 6149 ft 198 kts 181°
2026-04-25 01:51 -8.72457 179.21675 6462 ft 199 kts 181°
2026-04-25 01:51 -8.73839 179.21584 6776 ft 199 kts 181°
2026-04-25 01:51 -8.75228 179.21488 7077 ft 201 kts 181°
2026-04-25 01:52 -8.76624 179.21395 7365 ft 201 kts 181°
2026-04-25 01:52 -8.78023 179.21302 7645 ft 202 kts 181°
2026-04-25 01:52 -8.78958 179.21237 7824 ft 203 kts 181°
2026-04-25 01:52 -8.80374 179.21137 8106 ft 204 kts 180°
2026-04-25 01:53 -8.81812 179.21043 8384 ft 205 kts 181°
2026-04-25 01:53 -8.83218 179.20951 8646 ft 205 kts 181°
2026-04-25 01:53 -8.84648 179.20859 8914 ft 206 kts 180°
2026-04-25 01:53 -8.86085 179.20763 9161 ft 207 kts 181°
2026-04-25 01:54 -8.87522 179.20668 9402 ft 208 kts 181°
2026-04-25 01:54 -8.88414 179.20609 9560 ft 208 kts 180°
2026-04-25 01:54 -8.89635 179.20526 9779 ft 208 kts 181°
2026-04-25 01:54 -8.91081 179.20430 10029 ft 209 kts 180°
2026-04-25 01:55 -8.92535 179.20332 10273 ft 209 kts 180°
2026-04-25 01:55 -8.93989 179.20235 10527 ft 210 kts 180°
2026-04-25 01:55 -8.95445 179.20138 10771 ft 210 kts 180°
2026-04-25 01:55 -8.96905 179.20041 11007 ft 210 kts 180°
2026-04-25 01:56 -8.98368 179.19943 11236 ft 211 kts 180°
2026-04-25 01:56 -8.99833 179.19843 11470 ft 211 kts 180°
2026-04-25 01:56 -9.01302 179.19743 11702 ft 212 kts 180°
2026-04-25 01:56 -9.02775 179.19648 11946 ft 212 kts 180°
2026-04-25 01:57 -9.05734 179.19449 12400 ft 214 kts 180°
2026-04-25 01:57 -9.07218 179.19349 12610 ft 215 kts 180°
2026-04-25 01:57 -9.08713 179.19250 12819 ft 215 kts 180°
2026-04-25 01:58 -9.10211 179.19149 13020 ft 216 kts 180°
2026-04-25 01:58 -9.11715 179.19048 13220 ft 217 kts 180°
2026-04-25 01:58 -9.13222 179.18949 13399 ft 218 kts 180°
2026-04-25 01:58 -9.14738 179.18845 13577 ft 219 kts 180°
2026-04-25 01:59 -9.16258 179.18745 13771 ft 219 kts 179°
2026-04-25 01:59 -9.17783 179.18642 13965 ft 220 kts 180°
2026-04-25 01:59 -9.19314 179.18540 14156 ft 221 kts 180°
2026-04-25 01:59 -9.20850 179.18436 14338 ft 222 kts 179°
2026-04-25 02:00 -9.22371 179.18335 14506 ft 222 kts 179°
2026-04-25 02:00 -9.23918 179.18232 14684 ft 223 kts 179°
2026-04-25 02:00 -9.25471 179.18128 14853 ft 224 kts 179°
2026-04-25 02:00 -9.27027 179.18025 15019 ft 224 kts 179°
2026-04-25 02:01 -9.28590 179.17920 15173 ft 226 kts 179°
2026-04-25 02:01 -9.30157 179.17814 15355 ft 226 kts 179°
2026-04-25 02:01 -9.31731 179.17709 15512 ft 227 kts 179°
2026-04-25 02:01 -9.33308 179.17604 15664 ft 227 kts 179°
2026-04-25 02:02 -9.34890 179.17499 15836 ft 228 kts 179°
2026-04-25 02:02 -9.36475 179.17393 16008 ft 229 kts 179°
2026-04-25 02:02 -9.38066 179.17285 16163 ft 230 kts 179°
2026-04-25 02:02 -9.39665 179.17179 16320 ft 230 kts 179°
2026-04-25 02:03 -9.41268 179.17071 16474 ft 231 kts 179°
2026-04-25 02:03 -9.42871 179.16965 16620 ft 232 kts 179°
2026-04-25 02:03 -9.44484 179.16855 16761 ft 232 kts 179°
2026-04-25 02:03 -9.46096 179.16747 16899 ft 233 kts 179°
2026-04-25 02:04 -9.47714 179.16638 17034 ft 233 kts 179°
2026-04-25 02:04 -9.49339 179.16530 17163 ft 234 kts 179°
2026-04-25 02:04 -9.50961 179.16423 17275 ft 234 kts 179°
2026-04-25 02:04 -9.52594 179.16312 17399 ft 235 kts 179°
2026-04-25 02:05 -9.54227 179.16203 17514 ft 236 kts 179°
2026-04-25 02:05 -9.55864 179.16093 17618 ft 236 kts 179°
2026-04-25 02:05 -9.57508 179.15980 17726 ft 237 kts 179°
2026-04-25 02:05 -9.59153 179.15870 17824 ft 237 kts 179°
2026-04-25 02:06 -9.60801 179.15762 17923 ft 238 kts 179°
2026-04-25 02:06 -9.62457 179.15650 18056 ft 238 kts 179°
2026-04-25 02:06 -9.64110 179.15539 18184 ft 239 kts 179°
2026-04-25 02:06 -9.65769 179.15428 18310 ft 239 kts 179°
2026-04-25 02:07 -9.67429 179.15316 18429 ft 240 kts 179°
2026-04-25 02:07 -9.69096 179.15204 18537 ft 240 kts 179°
2026-04-25 02:07 -9.70765 179.15089 18649 ft 241 kts 179°
2026-04-25 02:07 -9.72434 179.14977 18750 ft 241 kts 179°
2026-04-25 02:08 -9.74108 179.14867 18850 ft 241 kts 179°
2026-04-25 02:08 -9.75786 179.14754 18935 ft 242 kts 179°
2026-04-25 02:08 -9.77477 179.14640 18973 ft 245 kts 179°
2026-04-25 02:08 -9.79187 179.14526 18993 ft 248 kts 179°
2026-04-25 02:09 -9.80920 179.14410 19006 ft 251 kts 179°
2026-04-25 02:09 -9.82679 179.14290 19008 ft 255 kts 179°
2026-04-25 02:09 -9.84453 179.14159 19004 ft 257 kts 180°
2026-04-25 02:09 -9.86233 179.14029 19006 ft 258 kts 180°
2026-04-25 02:10 -9.88037 179.13902 19008 ft 260 kts 179°
2026-04-25 02:10 -9.89847 179.13778 19010 ft 261 kts 180°
2026-04-25 02:10 -9.91657 179.13655 19010 ft 262 kts 179°
2026-04-25 02:10 -9.93482 179.13532 19009 ft 262 kts 180°
2026-04-25 02:11 -9.95305 179.13409 19010 ft 263 kts 180°
2026-04-25 02:11 -9.97132 179.13286 19013 ft 263 kts 180°
2026-04-25 02:11 -9.98957 179.13163 19015 ft 263 kts 180°
2026-04-25 02:11 -10.00791 179.13040 19015 ft 264 kts 180°
2026-04-25 02:12 -10.02623 179.12918 19018 ft 264 kts 180°
2026-04-25 02:12 -10.04453 179.12795 19017 ft 264 kts 180°
2026-04-25 02:12 -10.06291 179.12671 19017 ft 264 kts 180°
2026-04-25 02:12 -10.08126 179.12547 19018 ft 265 kts 180°
2026-04-25 02:13 -10.09963 179.12422 19014 ft 265 kts 180°
2026-04-25 02:13 -10.11801 179.12298 19026 ft 265 kts 180°
2026-04-25 02:13 -10.13640 179.12168 19024 ft 264 kts 180°
2026-04-25 02:13 -10.15471 179.12031 19025 ft 264 kts 180°
2026-04-25 02:14 -10.17317 179.11908 18944 ft 267 kts 180°
2026-04-25 02:14 -10.19179 179.11796 18895 ft 269 kts 180°
2026-04-25 02:14 -10.21021 179.11679 18869 ft 269 kts 180°
2026-04-25 02:14 -10.22903 179.11551 18859 ft 267 kts 180°
2026-04-25 02:15 -10.24741 179.11429 18858 ft 268 kts 180°
2026-04-25 02:15 -10.26589 179.11298 18853 ft 268 kts 180°
2026-04-25 02:15 -10.28443 179.11173 18847 ft 268 kts 180°
2026-04-25 02:15 -10.30289 179.11053 18850 ft 265 kts 179°
2026-04-25 02:16 -10.32125 179.10936 18847 ft 263 kts 180°
2026-04-25 02:16 -10.33952 179.10811 18849 ft 263 kts 180°
2026-04-25 02:16 -10.35780 179.10683 18850 ft 263 kts 180°
2026-04-25 02:16 -10.37607 179.10563 18849 ft 263 kts 180°
2026-04-25 02:17 -10.39431 179.10444 18855 ft 263 kts 180°
2026-04-25 02:17 -10.41261 179.10319 18859 ft 263 kts 180°
2026-04-25 02:17 -10.43092 179.10193 18860 ft 264 kts 180°
2026-04-25 02:17 -10.44924 179.10065 18860 ft 264 kts 180°
2026-04-25 02:18 -10.46758 179.09940 18860 ft 264 kts 180°
2026-04-25 02:18 -10.48593 179.09815 18860 ft 265 kts 180°
2026-04-25 02:18 -10.50433 179.09690 18861 ft 265 kts 180°
2026-04-25 02:18 -10.52274 179.09566 18860 ft 265 kts 180°
2026-04-25 02:19 -10.54120 179.09442 18860 ft 265 kts 180°
2026-04-25 02:19 -10.55963 179.09321 18861 ft 265 kts 180°
2026-04-25 02:19 -10.57804 179.09195 18860 ft 265 kts 180°
2026-04-25 02:19 -10.59646 179.09069 18859 ft 265 kts 180°
2026-04-25 02:20 -10.61490 179.08943 18860 ft 266 kts 180°
2026-04-25 02:20 -10.63333 179.08818 18860 ft 265 kts 180°
2026-04-25 02:20 -10.65177 179.08694 18860 ft 266 kts 180°
2026-04-25 02:20 -10.67019 179.08570 18861 ft 266 kts 180°
2026-04-25 02:21 -10.68864 179.08445 18860 ft 266 kts 180°
2026-04-25 02:21 -10.70708 179.08320 18860 ft 266 kts 180°
2026-04-25 02:21 -10.72556 179.08194 18865 ft 266 kts 180°
2026-04-25 02:21 -10.74398 179.08070 18867 ft 266 kts 180°
2026-04-25 02:22 -10.76243 179.07946 18868 ft 266 kts 180°
2026-04-25 02:22 -10.78092 179.07820 18869 ft 266 kts 180°
2026-04-25 02:22 -10.79937 179.07695 18870 ft 266 kts 180°
2026-04-25 02:22 -10.81780 179.07570 18869 ft 265 kts 180°
2026-04-25 02:23 -10.83622 179.07446 18870 ft 266 kts 180°
2026-04-25 02:23 -10.85470 179.07321 18869 ft 266 kts 180°
2026-04-25 02:23 -10.87312 179.07197 18869 ft 266 kts 180°
2026-04-25 02:23 -10.89157 179.07071 18869 ft 266 kts 180°
2026-04-25 02:24 -10.91004 179.06946 18869 ft 266 kts 180°
2026-04-25 02:24 -10.92828 179.06823 18869 ft 266 kts 180°
2026-04-25 02:24 -10.94675 179.06697 18869 ft 266 kts 180°
2026-04-25 02:24 -10.96523 179.06572 18869 ft 266 kts 180°
2026-04-25 02:25 -10.98372 179.06446 18869 ft 266 kts 180°
2026-04-25 02:25 -11.00220 179.06322 18871 ft 266 kts 180°
2026-04-25 02:25 -11.02066 179.06198 18870 ft 266 kts 180°
2026-04-25 02:25 -11.03911 179.06074 18869 ft 266 kts 180°
2026-04-25 02:26 -11.05756 179.05948 18873 ft 266 kts 180°
2026-04-25 02:26 -11.07601 179.05821 18876 ft 266 kts 180°
2026-04-25 02:26 -11.09443 179.05695 18878 ft 266 kts 180°
2026-04-25 02:26 -11.11287 179.05570 18878 ft 266 kts 180°
2026-04-25 02:27 -11.13135 179.05444 18879 ft 266 kts 180°
2026-04-25 02:27 -11.14983 179.05321 18878 ft 266 kts 180°
2026-04-25 02:27 -11.16829 179.05196 18878 ft 266 kts 180°
2026-04-25 02:27 -11.18677 179.05070 18878 ft 266 kts 180°
2026-04-25 02:28 -11.20524 179.04946 18878 ft 266 kts 180°
2026-04-25 02:28 -11.22365 179.04819 18878 ft 266 kts 180°
2026-04-25 02:28 -11.24214 179.04692 18883 ft 266 kts 180°
2026-04-25 02:28 -11.26070 179.04566 18907 ft 268 kts 180°
2026-04-25 02:29 -11.27940 179.04442 18868 ft 270 kts 180°
2026-04-25 02:29 -11.29811 179.04301 19034 ft 271 kts 181°
2026-04-25 02:29 -11.31714 179.04193 19181 ft 278 kts 180°
2026-04-25 02:29 -11.33676 179.04094 19229 ft 286 kts 180°
2026-04-25 02:30 -11.35683 179.03972 19198 ft 292 kts 182°
2026-04-25 02:30 -11.37715 179.03817 19054 ft 293 kts 182°
2026-04-25 02:30 -11.39740 179.03642 18960 ft 291 kts 182°
2026-04-25 02:30 -11.41742 179.03478 18919 ft 287 kts 181°
2026-04-25 02:31 -11.43698 179.03339 18901 ft 283 kts 180°
2026-04-25 02:31 -11.45679 179.03205 18894 ft 280 kts 181°
2026-04-25 02:31 -11.47588 179.03074 18890 ft 277 kts 180°
2026-04-25 02:31 -11.49506 179.02943 18888 ft 275 kts 180°
2026-04-25 02:32 -11.51410 179.02810 18885 ft 273 kts 180°
2026-04-25 02:32 -11.53328 179.02678 18896 ft 272 kts 180°
2026-04-25 02:32 -11.55212 179.02545 18897 ft 272 kts 180°
2026-04-25 02:32 -11.57104 179.02414 18911 ft 273 kts 181°
2026-04-25 02:33 -11.59005 179.02283 18900 ft 275 kts 181°
2026-04-25 02:33 -11.60913 179.02143 18889 ft 275 kts 181°
2026-04-25 02:33 -11.62827 179.02005 18871 ft 274 kts 181°
2026-04-25 02:33 -11.64722 179.01872 18878 ft 273 kts 181°
2026-04-25 02:34 -11.66611 179.01737 18890 ft 272 kts 181°
2026-04-25 02:34 -11.68505 179.01604 18887 ft 272 kts 181°
2026-04-25 02:34 -11.70389 179.01471 18881 ft 272 kts 181°
2026-04-25 02:34 -11.72272 179.01336 18881 ft 271 kts 181°
2026-04-25 02:35 -11.74123 179.01207 18884 ft 270 kts 181°
2026-04-25 02:35 -11.76013 179.01073 18886 ft 269 kts 181°
2026-04-25 02:35 -11.77879 179.00947 18887 ft 268 kts 180°
2026-04-25 02:35 -11.79716 179.00839 18888 ft 268 kts 181°
2026-04-25 02:36 -11.81599 179.00705 18888 ft 268 kts 181°
2026-04-25 02:36 -11.83433 179.00574 18888 ft 268 kts 181°
2026-04-25 02:36 -11.85291 179.00443 18888 ft 268 kts 181°
2026-04-25 02:36 -11.87150 179.00314 18888 ft 267 kts 181°
2026-04-25 02:37 -11.89005 179.00184 18888 ft 267 kts 181°
2026-04-25 02:37 -11.90861 179.00054 18888 ft 267 kts 181°
2026-04-25 02:37 -11.92712 178.99925 18888 ft 267 kts 181°
2026-04-25 02:37 -11.94564 178.99791 18888 ft 267 kts 181°
2026-04-25 02:38 -11.96420 178.99658 18888 ft 267 kts 181°
2026-04-25 02:38 -11.98269 178.99526 18892 ft 267 kts 181°
2026-04-25 02:38 -12.00121 178.99395 18895 ft 267 kts 181°
2026-04-25 02:38 -12.01974 178.99268 18896 ft 267 kts 181°
2026-04-25 02:39 -12.03203 178.99182 18896 ft 267 kts 181°
2026-04-25 02:39 -12.05683 178.99005 18897 ft 267 kts 181°
2026-04-25 02:39 -12.06910 178.98916 18897 ft 267 kts 181°
2026-04-25 02:39 -12.08765 178.98784 18897 ft 267 kts 181°
2026-04-25 02:40 -12.10622 178.98652 18897 ft 267 kts 181°
2026-04-25 02:40 -12.12477 178.98520 18897 ft 268 kts 181°
2026-04-25 02:40 -12.14339 178.98388 18897 ft 268 kts 181°
2026-04-25 02:40 -12.16198 178.98256 18898 ft 268 kts 181°
2026-04-25 02:41 -12.18053 178.98124 18898 ft 268 kts 181°
2026-04-25 02:41 -12.19918 178.97992 18898 ft 268 kts 181°
2026-04-25 02:41 -12.21777 178.97861 18897 ft 268 kts 181°
2026-04-25 02:41 -12.23640 178.97730 18897 ft 268 kts 181°
2026-04-25 02:42 -12.25499 178.97598 18897 ft 268 kts 181°
2026-04-25 02:42 -12.27363 178.97465 18897 ft 268 kts 181°
2026-04-25 02:42 -12.29224 178.97332 18897 ft 268 kts 181°
2026-04-25 02:42 -12.31079 178.97201 18897 ft 268 kts 181°
2026-04-25 02:43 -12.32943 178.97068 18897 ft 268 kts 181°
2026-04-25 02:43 -12.34804 178.96936 18897 ft 268 kts 181°
2026-04-25 02:43 -12.36666 178.96804 18897 ft 268 kts 181°
2026-04-25 02:43 -12.38528 178.96672 18897 ft 268 kts 181°
2026-04-25 02:44 -12.40383 178.96542 18897 ft 268 kts 181°
2026-04-25 02:44 -12.42247 178.96409 18897 ft 268 kts 181°
2026-04-25 02:44 -12.44103 178.96275 18897 ft 268 kts 181°
2026-04-25 02:44 -12.45962 178.96143 18897 ft 268 kts 181°
2026-04-25 02:45 -12.47822 178.96011 18897 ft 267 kts 181°
2026-04-25 02:45 -12.49651 178.95881 18897 ft 267 kts 181°
2026-04-25 02:45 -12.51531 178.95747 18898 ft 267 kts 181°
2026-04-25 02:45 -12.53362 178.95616 18903 ft 267 kts 181°
2026-04-25 02:46 -12.55221 178.95484 18905 ft 267 kts 181°
2026-04-25 02:46 -12.57078 178.95352 18906 ft 267 kts 181°
2026-04-25 02:46 -12.58932 178.95220 18906 ft 267 kts 181°
2026-04-25 02:46 -12.60791 178.95087 18906 ft 267 kts 181°
2026-04-25 02:47 -12.62643 178.94956 18906 ft 268 kts 181°
2026-04-25 02:47 -12.64502 178.94825 18906 ft 268 kts 181°
2026-04-25 02:47 -12.66362 178.94692 18907 ft 268 kts 181°
2026-04-25 02:47 -12.68219 178.94559 18907 ft 268 kts 181°
2026-04-25 02:48 -12.70080 178.94427 18906 ft 268 kts 181°
2026-04-25 02:48 -12.71950 178.94295 18906 ft 268 kts 181°
2026-04-25 02:48 -12.73810 178.94163 18907 ft 268 kts 181°
2026-04-25 02:48 -12.75671 178.94027 18906 ft 268 kts 181°
2026-04-25 02:49 -12.77535 178.93894 18906 ft 268 kts 181°
2026-04-25 02:49 -12.79396 178.93763 18906 ft 268 kts 181°
2026-04-25 02:49 -12.81257 178.93631 18906 ft 268 kts 181°
2026-04-25 02:49 -12.83117 178.93497 18906 ft 268 kts 181°
2026-04-25 02:50 -12.84981 178.93364 18907 ft 268 kts 181°
2026-04-25 02:50 -12.86850 178.93231 18908 ft 269 kts 181°
2026-04-25 02:50 -12.88714 178.93099 18906 ft 269 kts 181°
2026-04-25 02:50 -12.90583 178.92966 18905 ft 269 kts 181°
2026-04-25 02:51 -12.92446 178.92834 18906 ft 268 kts 181°
2026-04-25 02:51 -12.94307 178.92700 18908 ft 268 kts 181°
2026-04-25 02:51 -12.96173 178.92570 18909 ft 269 kts 182°
2026-04-25 02:51 -12.98042 178.92437 18908 ft 269 kts 181°
2026-04-25 02:52 -12.99907 178.92319 18905 ft 268 kts 181°
2026-04-25 02:52 -13.01762 178.92191 18907 ft 268 kts 182°
2026-04-25 02:52 -13.03624 178.92049 18906 ft 268 kts 182°
2026-04-25 02:52 -13.05485 178.91905 18905 ft 268 kts 182°
2026-04-25 02:53 -13.07346 178.91766 18906 ft 268 kts 181°
2026-04-25 02:53 -13.09204 178.91632 18907 ft 268 kts 182°
2026-04-25 02:53 -13.11064 178.91501 18907 ft 268 kts 182°
2026-04-25 02:53 -13.12902 178.91371 18907 ft 268 kts 182°
2026-04-25 02:54 -13.14765 178.91238 18906 ft 269 kts 182°
2026-04-25 02:54 -13.16631 178.91104 18906 ft 269 kts 182°
2026-04-25 02:54 -13.18501 178.90972 18906 ft 269 kts 182°
2026-04-25 02:54 -13.20370 178.90840 18906 ft 269 kts 182°
2026-04-25 02:55 -13.22237 178.90708 18906 ft 269 kts 182°
2026-04-25 02:55 -13.24106 178.90575 18907 ft 269 kts 182°
2026-04-25 02:55 -13.25976 178.90443 18906 ft 269 kts 182°
2026-04-25 02:55 -13.27844 178.90311 18906 ft 269 kts 182°
2026-04-25 02:56 -13.29713 178.90178 18906 ft 269 kts 182°
2026-04-25 02:56 -13.31580 178.90047 18907 ft 269 kts 182°
2026-04-25 02:56 -13.33450 178.89914 18907 ft 269 kts 182°
2026-04-25 02:56 -13.35323 178.89781 18906 ft 269 kts 182°
2026-04-25 02:57 -13.37190 178.89650 18906 ft 269 kts 182°
2026-04-25 02:57 -13.39061 178.89518 18906 ft 270 kts 182°
2026-04-25 02:57 -13.40934 178.89384 18906 ft 270 kts 182°
2026-04-25 02:57 -13.42805 178.89253 18906 ft 270 kts 182°
2026-04-25 02:58 -13.44677 178.89119 18907 ft 270 kts 182°
2026-04-25 02:58 -13.46555 178.88985 18907 ft 270 kts 182°
2026-04-25 02:58 -13.48426 178.88853 18907 ft 270 kts 182°
2026-04-25 02:58 -13.50299 178.88721 18906 ft 270 kts 182°
2026-04-25 02:59 -13.52168 178.88589 18906 ft 269 kts 182°
2026-04-25 02:59 -13.54039 178.88456 18907 ft 270 kts 182°
2026-04-25 02:59 -13.55911 178.88324 18907 ft 270 kts 182°
2026-04-25 02:59 -13.57786 178.88190 18907 ft 270 kts 182°
2026-04-25 03:00 -13.59662 178.88055 18906 ft 270 kts 182°
2026-04-25 03:00 -13.61536 178.87922 18907 ft 270 kts 182°
2026-04-25 03:00 -13.63411 178.87791 18906 ft 270 kts 182°
2026-04-25 03:00 -13.65281 178.87659 18906 ft 270 kts 182°
2026-04-25 03:01 -13.67155 178.87526 18906 ft 270 kts 182°
2026-04-25 03:01 -13.69026 178.87392 18911 ft 270 kts 182°
2026-04-25 03:01 -13.70876 178.87261 18906 ft 270 kts 182°
2026-04-25 03:01 -13.72777 178.87124 18905 ft 270 kts 182°
2026-04-25 03:02 -13.74623 178.86994 18905 ft 270 kts 182°
2026-04-25 03:02 -13.76499 178.86862 18906 ft 270 kts 182°
2026-04-25 03:02 -13.78374 178.86728 18906 ft 270 kts 182°
2026-04-25 03:02 -13.80246 178.86595 18906 ft 270 kts 182°
2026-04-25 03:03 -13.82119 178.86463 18906 ft 270 kts 182°
2026-04-25 03:03 -13.83989 178.86329 18907 ft 270 kts 182°
2026-04-25 03:03 -13.85862 178.86195 18907 ft 270 kts 182°
2026-04-25 03:03 -13.87733 178.86062 18906 ft 270 kts 182°
2026-04-25 03:04 -13.89604 178.85931 18906 ft 269 kts 182°
2026-04-25 03:04 -13.91473 178.85799 18906 ft 269 kts 182°
2026-04-25 03:04 -13.93342 178.85666 18906 ft 269 kts 182°
2026-04-25 03:05 -13.97086 178.85396 18907 ft 270 kts 182°
2026-04-25 03:05 -13.98960 178.85264 18907 ft 270 kts 182°
2026-04-25 03:05 -14.00836 178.85130 18906 ft 270 kts 182°
2026-04-25 03:05 -14.02707 178.84999 18906 ft 270 kts 182°
2026-04-25 03:06 -14.04585 178.84865 18907 ft 270 kts 182°
2026-04-25 03:06 -14.06459 178.84733 18907 ft 270 kts 182°
2026-04-25 03:06 -14.08338 178.84599 18906 ft 270 kts 182°
2026-04-25 03:06 -14.10214 178.84462 18906 ft 270 kts 182°
2026-04-25 03:07 -14.12091 178.84328 18906 ft 270 kts 182°
2026-04-25 03:07 -14.13968 178.84193 18907 ft 270 kts 182°
2026-04-25 03:07 -14.15844 178.84059 18906 ft 270 kts 182°
2026-04-25 03:07 -14.17722 178.83926 18906 ft 270 kts 182°
2026-04-25 03:08 -14.19602 178.83793 18907 ft 271 kts 182°
2026-04-25 03:08 -14.21483 178.83661 18907 ft 271 kts 182°
2026-04-25 03:08 -14.23364 178.83526 18907 ft 271 kts 182°
2026-04-25 03:08 -14.25245 178.83390 18906 ft 271 kts 182°
2026-04-25 03:09 -14.27123 178.83255 18906 ft 271 kts 182°
2026-04-25 03:09 -14.28999 178.83122 18906 ft 270 kts 182°
2026-04-25 03:09 -14.30879 178.82989 18906 ft 270 kts 182°
2026-04-25 03:09 -14.32757 178.82854 18906 ft 271 kts 182°
2026-04-25 03:10 -14.34633 178.82720 18906 ft 271 kts 182°
2026-04-25 03:10 -14.36515 178.82586 18906 ft 270 kts 182°
2026-04-25 03:10 -14.38392 178.82451 18907 ft 271 kts 182°
2026-04-25 03:10 -14.40269 178.82317 18907 ft 271 kts 182°
2026-04-25 03:11 -14.42150 178.82183 18906 ft 271 kts 182°
2026-04-25 03:11 -14.44027 178.82048 18906 ft 271 kts 182°
2026-04-25 03:11 -14.45909 178.81915 18906 ft 271 kts 182°
2026-04-25 03:11 -14.47768 178.81781 18909 ft 271 kts 182°
2026-04-25 03:12 -14.49647 178.81648 18912 ft 271 kts 182°
2026-04-25 03:12 -14.51528 178.81512 18914 ft 271 kts 182°
2026-04-25 03:12 -14.53410 178.81378 18915 ft 271 kts 182°
2026-04-25 03:12 -14.55288 178.81243 18915 ft 271 kts 183°
2026-04-25 03:13 -14.57168 178.81109 18916 ft 271 kts 182°
2026-04-25 03:13 -14.59051 178.80974 18916 ft 271 kts 183°
2026-04-25 03:13 -14.60931 178.80840 18916 ft 271 kts 183°
2026-04-25 03:13 -14.62815 178.80705 18916 ft 271 kts 183°
2026-04-25 03:14 -14.64696 178.80572 18916 ft 271 kts 183°
2026-04-25 03:14 -14.66577 178.80438 18915 ft 271 kts 183°
2026-04-25 03:14 -14.68459 178.80302 18916 ft 272 kts 183°
2026-04-25 03:14 -14.70344 178.80165 18916 ft 271 kts 183°
2026-04-25 03:15 -14.72227 178.80029 18916 ft 271 kts 183°
2026-04-25 03:15 -14.74115 178.79895 18916 ft 271 kts 183°
2026-04-25 03:15 -14.75998 178.79760 18916 ft 271 kts 183°
2026-04-25 03:15 -14.77881 178.79625 18916 ft 271 kts 183°
2026-04-25 03:16 -14.79763 178.79491 18916 ft 271 kts 183°
2026-04-25 03:16 -14.81645 178.79355 18916 ft 271 kts 183°
2026-04-25 03:16 -14.83528 178.79219 18916 ft 271 kts 184°
2026-04-25 03:16 -14.85412 178.79085 18915 ft 271 kts 183°
2026-04-25 03:17 -14.87294 178.78951 18916 ft 271 kts 183°
2026-04-25 03:17 -14.89175 178.78818 18916 ft 271 kts 183°
2026-04-25 03:17 -14.91055 178.78684 18915 ft 271 kts 184°
2026-04-25 03:17 -14.92937 178.78548 18916 ft 271 kts 184°
2026-04-25 03:18 -14.94813 178.78413 18916 ft 271 kts 183°
2026-04-25 03:18 -14.96693 178.78279 18916 ft 271 kts 184°
2026-04-25 03:18 -14.98573 178.78144 18916 ft 271 kts 184°
2026-04-25 03:18 -15.00426 178.78013 18916 ft 271 kts 183°
2026-04-25 03:19 -15.02304 178.77879 18916 ft 271 kts 183°
2026-04-25 03:19 -15.04208 178.77744 18916 ft 271 kts 184°
2026-04-25 03:19 -15.06086 178.77610 18916 ft 271 kts 184°
2026-04-25 03:19 -15.07939 178.77477 18916 ft 270 kts 184°
2026-04-25 03:20 -15.09815 178.77344 18916 ft 270 kts 184°
2026-04-25 03:20 -15.11688 178.77209 18916 ft 270 kts 184°
2026-04-25 03:20 -15.13565 178.77074 18916 ft 270 kts 184°
2026-04-25 03:20 -15.15444 178.76940 18916 ft 271 kts 184°
2026-04-25 03:21 -15.17319 178.76806 18916 ft 270 kts 184°
2026-04-25 03:21 -15.19199 178.76671 18916 ft 270 kts 184°
2026-04-25 03:21 -15.21075 178.76537 18916 ft 270 kts 184°
2026-04-25 03:21 -15.22953 178.76402 18916 ft 270 kts 184°
2026-04-25 03:22 -15.24831 178.76269 18916 ft 271 kts 184°
2026-04-25 03:22 -15.26708 178.76135 18915 ft 271 kts 184°
2026-04-25 03:22 -15.28589 178.76001 18915 ft 271 kts 184°
2026-04-25 03:22 -15.30468 178.75865 18916 ft 271 kts 184°
2026-04-25 03:23 -15.32344 178.75730 18916 ft 270 kts 184°
2026-04-25 03:23 -15.34224 178.75595 18916 ft 271 kts 184°
2026-04-25 03:23 -15.36101 178.75461 18916 ft 271 kts 184°
2026-04-25 03:23 -15.37980 178.75327 18916 ft 271 kts 184°
2026-04-25 03:24 -15.39860 178.75192 18916 ft 271 kts 184°
2026-04-25 03:24 -15.41737 178.75057 18916 ft 271 kts 184°
2026-04-25 03:24 -15.43618 178.74921 18916 ft 271 kts 184°
2026-04-25 03:24 -15.45495 178.74787 18916 ft 271 kts 184°
2026-04-25 03:25 -15.47351 178.74655 18916 ft 271 kts 184°
2026-04-25 03:25 -15.49254 178.74518 18916 ft 271 kts 184°
2026-04-25 03:25 -15.51110 178.74384 18916 ft 271 kts 184°
2026-04-25 03:25 -15.52991 178.74250 18916 ft 271 kts 184°
2026-04-25 03:26 -15.54872 178.74115 18916 ft 271 kts 184°
2026-04-25 03:26 -15.56755 178.73979 18916 ft 271 kts 184°
2026-04-25 03:26 -15.58633 178.73843 18916 ft 271 kts 184°
2026-04-25 03:26 -15.60515 178.73708 18916 ft 271 kts 184°
2026-04-25 03:27 -15.61784 178.73618 18917 ft 271 kts 184°
2026-04-25 03:27 -15.63645 178.73485 18915 ft 271 kts 184°
2026-04-25 03:27 -15.65527 178.73349 18915 ft 271 kts 184°
2026-04-25 03:27 -15.67411 178.73214 18915 ft 271 kts 184°
2026-04-25 03:28 -15.69292 178.73078 18916 ft 271 kts 184°
2026-04-25 03:28 -15.71173 178.72943 18915 ft 271 kts 184°
2026-04-25 03:28 -15.73051 178.72808 18915 ft 271 kts 184°
2026-04-25 03:28 -15.74932 178.72673 18916 ft 271 kts 184°
2026-04-25 03:29 -15.76813 178.72538 18916 ft 271 kts 184°
2026-04-25 03:29 -15.78694 178.72402 18916 ft 271 kts 184°
2026-04-25 03:29 -15.80584 178.72266 18916 ft 271 kts 184°
2026-04-25 03:29 -15.82464 178.72121 18915 ft 271 kts 187°
2026-04-25 03:30 -15.84323 178.71797 18916 ft 271 kts 192°
2026-04-25 03:30 -15.86167 178.71391 18916 ft 272 kts 192°
2026-04-25 03:30 -15.88021 178.70994 18916 ft 272 kts 191°
2026-04-25 03:30 -15.89880 178.70641 18916 ft 272 kts 190°
2026-04-25 03:31 -15.91742 178.70310 18916 ft 272 kts 190°
2026-04-25 03:31 -15.93607 178.69974 18916 ft 272 kts 190°
2026-04-25 03:31 -15.95472 178.69638 18915 ft 272 kts 190°
2026-04-25 03:31 -15.97338 178.69304 18915 ft 272 kts 190°
2026-04-25 03:32 -15.99203 178.68967 18916 ft 272 kts 191°
2026-04-25 03:32 -16.01066 178.68631 18917 ft 272 kts 190°
2026-04-25 03:32 -16.02932 178.68297 18916 ft 272 kts 191°
2026-04-25 03:32 -16.04797 178.67959 18916 ft 273 kts 191°
2026-04-25 03:33 -16.06666 178.67619 18915 ft 273 kts 191°
2026-04-25 03:33 -16.08538 178.67280 18915 ft 273 kts 191°
2026-04-25 03:33 -16.10410 178.66943 18915 ft 273 kts 191°
2026-04-25 03:33 -16.12279 178.66606 18916 ft 273 kts 191°
2026-04-25 03:34 -16.14124 178.66272 18916 ft 273 kts 191°
2026-04-25 03:34 -16.15995 178.65934 18915 ft 273 kts 191°
2026-04-25 03:34 -16.17863 178.65598 18916 ft 273 kts 191°
2026-04-25 03:34 -16.19737 178.65260 18915 ft 273 kts 191°
2026-04-25 03:35 -16.21604 178.64922 18915 ft 273 kts 191°
2026-04-25 03:35 -16.23471 178.64584 18916 ft 273 kts 191°
2026-04-25 03:35 -16.25341 178.64246 18916 ft 273 kts 191°
2026-04-25 03:35 -16.27210 178.63911 18916 ft 272 kts 191°
2026-04-25 03:36 -16.29077 178.63573 18916 ft 273 kts 191°
2026-04-25 03:36 -16.30946 178.63234 18916 ft 273 kts 191°
2026-04-25 03:36 -16.32815 178.62898 18917 ft 273 kts 191°
2026-04-25 03:36 -16.34689 178.62559 18916 ft 273 kts 191°
2026-04-25 03:37 -16.36559 178.62219 18916 ft 273 kts 191°
2026-04-25 03:37 -16.38429 178.61881 18915 ft 273 kts 191°
2026-04-25 03:37 -16.40299 178.61543 18915 ft 273 kts 191°
2026-04-25 03:37 -16.42174 178.61204 18915 ft 273 kts 191°
2026-04-25 03:38 -16.44034 178.60866 18916 ft 273 kts 191°
2026-04-25 03:38 -16.45903 178.60527 18915 ft 273 kts 191°
2026-04-25 03:38 -16.47776 178.60189 18917 ft 273 kts 191°
2026-04-25 03:38 -16.49643 178.59850 18921 ft 272 kts 191°
2026-04-25 03:39 -16.51510 178.59512 18923 ft 272 kts 191°
2026-04-25 03:39 -16.53376 178.59175 18924 ft 272 kts 191°
2026-04-25 03:39 -16.55241 178.58836 18924 ft 272 kts 191°
2026-04-25 03:39 -16.57109 178.58497 18924 ft 273 kts 191°
2026-04-25 03:40 -16.58977 178.58158 18930 ft 273 kts 191°
2026-04-25 03:40 -16.60849 178.57820 18923 ft 273 kts 191°
2026-04-25 03:40 -16.62718 178.57481 18924 ft 273 kts 191°
2026-04-25 03:40 -16.64588 178.57143 18925 ft 273 kts 191°
2026-04-25 03:41 -16.66453 178.56803 18923 ft 273 kts 191°
2026-04-25 03:41 -16.68298 178.56467 18924 ft 272 kts 191°
2026-04-25 03:41 -16.70165 178.56129 18926 ft 272 kts 191°
2026-04-25 03:41 -16.72034 178.55789 18927 ft 273 kts 191°
2026-04-25 03:42 -16.73930 178.55446 18926 ft 273 kts 191°
2026-04-25 03:42 -16.75801 178.55106 18925 ft 273 kts 191°
2026-04-25 03:42 -16.77647 178.54770 18924 ft 273 kts 191°
2026-04-25 03:42 -16.79519 178.54431 18926 ft 273 kts 191°
2026-04-25 03:43 -16.81389 178.54091 18923 ft 273 kts 191°
2026-04-25 03:43 -16.83257 178.53751 18926 ft 273 kts 191°
2026-04-25 03:43 -16.85126 178.53410 18934 ft 272 kts 191°
2026-04-25 03:43 -16.86992 178.53070 18939 ft 272 kts 191°
2026-04-25 03:44 -16.88853 178.52733 18942 ft 272 kts 192°
2026-04-25 03:44 -16.90719 178.52393 18943 ft 272 kts 192°
2026-04-25 03:44 -16.92583 178.52053 18943 ft 272 kts 192°
2026-04-25 03:44 -16.94449 178.51713 18943 ft 272 kts 191°
2026-04-25 03:45 -16.96316 178.51375 18944 ft 272 kts 192°
2026-04-25 03:45 -16.98185 178.51034 18943 ft 272 kts 192°
2026-04-25 03:45 -17.00050 178.50694 18944 ft 273 kts 192°
2026-04-25 03:45 -17.01919 178.50353 18944 ft 273 kts 192°
2026-04-25 03:46 -17.03788 178.50013 18943 ft 273 kts 192°
2026-04-25 03:46 -17.05655 178.49673 18944 ft 272 kts 192°
2026-04-25 03:46 -17.07525 178.49333 18943 ft 273 kts 192°
2026-04-25 03:46 -17.09395 178.48992 18944 ft 273 kts 192°
2026-04-25 03:47 -17.11262 178.48651 18944 ft 273 kts 192°
2026-04-25 03:47 -17.13136 178.48309 18944 ft 273 kts 192°
2026-04-25 03:47 -17.15006 178.47968 18943 ft 273 kts 192°
2026-04-25 03:47 -17.16875 178.47627 18944 ft 273 kts 192°
2026-04-25 03:48 -17.18744 178.47284 18943 ft 273 kts 192°
2026-04-25 03:48 -17.20612 178.46945 18944 ft 273 kts 192°
2026-04-25 03:48 -17.22480 178.46603 18945 ft 272 kts 192°
2026-04-25 03:48 -17.24346 178.46263 18950 ft 272 kts 192°
2026-04-25 03:49 -17.26210 178.45922 18951 ft 272 kts 192°
2026-04-25 03:49 -17.28081 178.45581 18954 ft 272 kts 192°
2026-04-25 03:49 -17.29946 178.45239 18667 ft 283 kts 192°
2026-04-25 03:49 -17.31932 178.44876 18261 ft 296 kts 192°
2026-04-25 03:50 -17.34025 178.44494 17831 ft 306 kts 192°
2026-04-25 03:50 -17.36124 178.44113 17400 ft 314 kts 192°
2026-04-25 03:50 -17.38296 178.43717 16943 ft 319 kts 191°
2026-04-25 03:50 -17.40475 178.43317 16502 ft 315 kts 191°
2026-04-25 03:51 -17.42621 178.42924 16059 ft 312 kts 191°
2026-04-25 03:51 -17.44748 178.42535 15619 ft 308 kts 191°
2026-04-25 03:51 -17.46850 178.42151 15185 ft 305 kts 191°
2026-04-25 03:51 -17.48940 178.41769 14753 ft 304 kts 191°
2026-04-25 03:52 -17.51012 178.41389 14326 ft 302 kts 191°
2026-04-25 03:52 -17.53073 178.41010 13951 ft 298 kts 191°
2026-04-25 03:52 -17.55096 178.40632 13626 ft 294 kts 191°
2026-04-25 03:52 -17.57113 178.40275 13206 ft 294 kts 191°
2026-04-25 03:53 -17.59127 178.39907 12787 ft 294 kts 191°
2026-04-25 03:53 -17.61141 178.39535 12363 ft 294 kts 191°
2026-04-25 03:53 -17.63154 178.39165 11937 ft 293 kts 191°
2026-04-25 03:53 -17.65157 178.38799 11523 ft 293 kts 190°
2026-04-25 03:54 -17.66881 178.38481 11160 ft 292 kts 190°
2026-04-25 03:54 -17.68940 178.38105 10735 ft 288 kts 190°
2026-04-25 03:54 -17.70917 178.37747 10320 ft 288 kts 189°
2026-04-25 03:54 -17.72891 178.37381 9908 ft 288 kts 189°
2026-04-25 03:55 -17.74859 178.37021 9500 ft 287 kts 189°
2026-04-25 03:55 -17.76818 178.36663 9080 ft 286 kts 188°
2026-04-25 03:55 -17.78781 178.36303 8675 ft 285 kts 188°
2026-04-25 03:55 -17.80729 178.35946 8276 ft 284 kts 188°
2026-04-25 03:56 -17.82673 178.35589 7870 ft 283 kts 188°
2026-04-25 03:56 -17.84610 178.35239 7467 ft 281 kts 188°
2026-04-25 03:56 -17.86443 178.34890 7090 ft 255 kts 188°
2026-04-25 03:56 -17.88114 178.34582 6731 ft 228 kts 187°
2026-04-25 03:57 -17.89610 178.34312 6418 ft 218 kts 187°
2026-04-25 03:57 -17.91168 178.34056 6089 ft 240 kts 186°
2026-04-25 03:57 -17.92841 178.33781 5767 ft 237 kts 187°
2026-04-25 03:57 -17.94392 178.33507 5385 ft 217 kts 187°
2026-04-25 03:58 -17.95832 178.33247 5006 ft 202 kts 187°
2026-04-25 03:58 -17.97133 178.33273 4623 ft 178 kts 155°
2026-04-25 03:58 -17.97937 178.34138 4183 ft 164 kts 107°
2026-04-25 03:58 -17.98141 178.35289 3888 ft 159 kts 98°
2026-04-25 03:59 -17.98314 178.36419 3632 ft 154 kts 98°
2026-04-25 03:59 -17.98504 178.37504 3426 ft 148 kts 100°
2026-04-25 03:59 -17.98716 178.38544 3237 ft 142 kts 102°
2026-04-25 03:59 -17.98932 178.39537 3051 ft 137 kts 102°
2026-04-25 04:00 -17.99183 178.40496 2877 ft 138 kts 107°
2026-04-25 04:00 -17.99521 178.41467 2707 ft 144 kts 110°
2026-04-25 04:00 -17.99874 178.42471 2513 ft 149 kts 110°
2026-04-25 04:00 -18.00215 178.43498 2323 ft 148 kts 110°
2026-04-25 04:01 -18.00545 178.44505 2130 ft 144 kts 110°
2026-04-25 04:01 -18.00864 178.45477 1945 ft 135 kts 110°
2026-04-25 04:01 -18.01151 178.46351 1778 ft 120 kts 111°
2026-04-25 04:01 -18.01417 178.47146 1623 ft 111 kts 111°
2026-04-25 04:02 -18.01667 178.47898 1473 ft 109 kts 111°
2026-04-25 04:02 -18.01920 178.48658 1340 ft 110 kts 111°
2026-04-25 04:02 -18.02174 178.49412 1194 ft 111 kts 111°
2026-04-25 04:02 -18.02432 178.50189 1046 ft 114 kts 111°
2026-04-25 04:03 -18.02697 178.50990 888 ft 117 kts 110°
2026-04-25 04:03 -18.02963 178.51803 728 ft 119 kts 110°
2026-04-25 04:03 -18.03233 178.52628 535 ft 119 kts 111°
2026-04-25 04:03 -18.03512 178.53424 388 ft 115 kts 111°
2026-04-25 04:04 -18.03774 178.54214 235 ft 114 kts 109°
2026-04-25 04:04 -18.04021 178.54986 83 ft 113 kts 110°
2026-04-25 04:04 -18.04266 178.55723 23 ft 90 kts 105°
2026-04-25 04:04 -18.04402 178.56151 17 ft 8 kts 109°
2026-04-25 04:05 -18.04436 178.56153 15 ft 1 kts 202°
2026-04-25 04:05 -18.04458 178.56144 19 ft 7 kts 198°
2026-04-25 04:05 -18.04522 178.56123 18 ft 8 kts 199°
2026-04-25 04:05 -18.04552 178.56111 17 ft 0 kts 200°
2026-04-25 04:06 -18.04557 178.56107 17 ft 0 kts 231°
2026-04-25 04:06 -18.04560 178.56103 17 ft 0 kts 231°
2026-04-25 04:07 -18.04561 178.56101 17 ft 1 kts 235°
2026-04-25 04:07 -18.04565 178.56095 19 ft 2 kts 233°
2026-04-25 04:07 -18.04568 178.56084 18 ft 2 kts 258°
2026-04-25 04:08 -18.04568 178.56070 18 ft 3 kts 272°
2026-04-25 04:08 -18.04564 178.56059 18 ft 3 kts 291°
2026-04-25 04:08 -18.04560 178.56048 18 ft 0 kts 290°